Location: Kalisz
(51.7636°N, 18.0893°E)
Time: 15:28:22
(UTC+01:00)

ISS - Pass Details

Date: 02 February 2019
Orbit: 403 x 411 km, 51.6° (Epoch: 20 February)

Event Time Altitude Azimuth Distance (km) Brightness Sun altitude
Rises 19:41:05 0° 283° (WNW) 2,342 1.3 -28.4°
Reaches altitude 10° 19:43:15 10° 275° (W) 1,480 0.0 -28.8°
Enters shadow 19:44:10 17° 268° (W) 1,138 -0.8 -28.9°
